Location: Newark
(42.8481°N, 0.4872°E)
Time: 08:27:17
(UTC+00:00)

A-11 Canister half - Pass Details

Date: 31 October 2020
Orbit: 1516 x 1684 km, 47.2° (Epoch: 04 December)

Event Time Altitude Azimuth Distance (km) Brightness Sun altitude
Rises 19:24:04 0° 234° (SW) 4,927 12.3 -28.5°
Reaches altitude 10° 19:27:14 10° 233° (SW) 3,941 11.7 -29.0°
Maximum altitude 19:37:22 77° 150° (SSE) 1,710 9.0 -30.9°
Enters shadow 19:39:24 61° 86° (E) 1,851 9.0 -31.2°
